Location: Bosdarros
(43.2167°N, 0.3667°W)
Time: 01:38:41
(UTC+00:00)

SAR-Lupe-4 - Pass Details

Date: 22 April 2021
Orbit: 483 x 483 km, 98.2° (Epoch: 13 April)

Event Time Altitude Azimuth Distance (km) Brightness Sun altitude
Rises 19:14:02 0° 14° (NNE) 2,559 7.3 -4.5°
Reaches altitude 10° 19:16:06 10° 16° (NNE) 1,673 6.4 -4.8°
Maximum altitude 19:19:42 77° 103° (ESE) 502 3.5 -5.4°
Drops below altitude 10° 19:23:16 10° 190° (S) 1,659 6.1 -6.0°
Sets 19:25:19 0° 192° (SSW) 2,533 7.1 -6.4°
